Date String (YYYY-MM-DD hh:mm:ss) UTC,Instrument flags,Ambient pressure (hPa),Sample flow (lpm),Bypass flow (lpm),Sample temperature (°C),Ambient temperature (°C),ASC tube jacket temperature (°C),LED temperature (°C),Box temperature (°C),Sample RH (%),Span deviation,Mass concentration (μg/m³),Mass concentration (μg/m³),Mass concentration (μg/m³)
DateTimeUTC,F1_M11,P_M11,Q1_M11,Q2_M11,T1_M11,T2_M11,T3_M11,T4_M11,T5_M11,U1_M11,ZSPAN_M11,X0_M11,X2_M11,X1_M11
2022-07-18 08:00:00,,0827.9,5.00,0.00,29.4,27.2,00.0,38.2,31.1,25.7,0000.0,0012.93,0006.80,0005.99
2022-07-18 08:01:00,,0828.0,5.01,0.00,29.4,27.4,00.0,38.2,31.1,25.8,0000.0,0013.28,0006.80,0005.97
2022-07-18 08:02:00,,0827.9,4.98,0.00,29.4,27.6,00.0,38.2,31.2,25.9,0000.0,0014.23,0006.79,0005.96
2022-07-18 08:03:00,,0827.9,5.01,0.00,29.4,27.7,00.0,38.2,31.2,25.8,0000.0,0014.86,0006.76,0005.93
2022-07-18 08:04:00,,0827.9,5.01,0.00,29.4,27.9,00.0,38.2,31.3,25.7,0000.0,0015.43,0006.76,0005.92
2022-07-18 08:05:00,,0827.9,4.99,0.00,29.4,28.0,00.0,38.2,31.3,25.5,0000.0,0016.26,0006.75,0005.89
2022-07-18 08:06:00,,0827.8,4.99,0.00,29.4,28.1,00.0,38.2,31.3,25.5,0000.0,0016.16,0006.65,0005.87
2022-07-18 08:07:00,,0827.8,5.00,0.00,29.5,28.2,00.0,38.2,31.4,25.4,0000.0,0014.49,0006.62,0005.87
2022-07-18 08:08:00,,0827.8,5.01,0.00,29.5,28.3,00.0,38.2,31.4,25.3,0000.0,0014.35,0006.59,0005.86
2022-07-18 08:09:00,,0827.8,4.99,0.00,29.5,28.4,00.0,38.2,31.5,25.2,0000.0,0014.92,0006.60,0005.85
2022-07-18 08:10:00,,0827.8,5.01,0.00,29.6,28.5,00.0,38.3,31.5,25.2,0000.0,0014.79,0006.61,0005.85
2022-07-18 08:11:00,,0827.8,4.99,0.00,29.6,28.6,00.0,38.3,31.6,25.3,0000.0,0014.70,0006.66,0005.85
2022-07-18 08:12:00,,0827.8,5.00,0.00,29.6,28.6,00.0,38.3,31.6,25.3,0000.0,0014.53,0006.66,0005.85
2022-07-18 08:13:00,,0827.8,5.01,0.00,29.7,28.5,00.0,38.3,31.6,25.1,0000.0,0013.51,0006.65,0005.85
2022-07-18 08:14:00,,0827.8,4.99,0.00,29.6,27.7,00.0,38.2,31.5,25.1,0000.0,0012.83,0006.60,0005.84
2022-07-18 08:15:00,,0827.8,4.99,0.00,29.6,27.4,00.0,38.2,31.4,25.2,0000.0,0012.36,0006.57,0005.83
2022-07-18 08:16:00,,0827.8,5.00,0.00,29.6,27.4,00.0,38.2,31.3,25.4,0000.0,0011.50,0006.56,0005.83
2022-07-18 08:17:00,,0827.8,5.00,0.00,29.5,27.5,00.0,38.2,31.3,25.4,0000.0,0011.17,0006.58,0005.83
2022-07-18 08:18:00,,0827.9,5.01,0.00,29.5,27.6,00.0,38.2,31.3,25.4,0000.0,0011.11,0006.57,0005.83
2022-07-18 08:19:00,,0827.8,5.01,0.00,29.5,27.8,00.0,38.2,31.3,25.2,0000.0,0011.00,0006.56,0005.82
2022-07-18 08:20:00,,0827.8,5.00,0.00,29.5,27.9,00.0,38.2,31.3,25.3,0000.0,0010.45,0006.58,0005.84
2022-07-18 08:21:00,,0827.9,4.99,0.00,29.5,28.0,00.0,38.2,31.4,25.2,0000.0,0010.78,0006.56,0005.84
2022-07-18 08:22:00,,0827.8,5.00,0.00,29.5,28.1,00.0,38.3,31.4,25.1,0000.0,0011.04,0006.51,0005.84
2022-07-18 08:23:00,,0827.8,5.00,0.00,29.5,28.3,00.0,38.3,31.5,25.3,0000.0,0011.20,0006.50,0005.84
2022-07-18 08:24:00,,0827.8,5.01,0.00,29.6,28.4,00.0,38.3,31.5,25.2,0000.0,0011.31,0006.54,0005.85
2022-07-18 08:25:00,,0827.8,4.99,0.00,29.6,28.4,00.0,38.3,31.5,25.0,0000.0,0011.30,0006.58,0005.86
2022-07-18 08:26:00,,0827.7,5.01,0.00,29.6,28.5,00.0,38.3,31.6,24.9,0000.0,0011.31,0006.58,0005.85
2022-07-18 08:27:00,,0827.7,5.00,0.00,29.7,28.6,00.0,38.3,31.6,25.0,0000.0,0011.61,0006.59,0005.86
2022-07-18 08:28:00,,0827.7,5.00,0.00,29.7,28.4,00.0,38.3,31.6,24.9,0000.0,0011.78,0006.60,0005.86
2022-07-18 08:29:00,,0827.7,4.99,0.00,29.7,27.7,00.0,38.3,31.5,24.8,0000.0,0011.96,0006.63,0005.86
2022-07-18 08:30:00,,0827.7,4.99,0.00,29.6,27.4,00.0,38.2,31.5,24.9,0000.0,0012.03,0006.63,0005.86
2022-07-18 08:31:00,,0827.7,5.00,0.00,29.6,27.4,00.0,38.3,31.3,25.0,0000.0,0012.08,0006.63,0005.86
2022-07-18 08:32:00,,0827.7,5.00,0.00,29.5,27.5,00.0,38.3,31.3,25.0,0000.0,0011.97,0006.65,0005.85
2022-07-18 08:33:00,,0827.7,5.00,0.00,29.5,27.6,00.0,38.3,31.3,25.2,0000.0,0011.40,0006.64,0005.84
2022-07-18 08:34:00,,0827.7,5.00,0.00,29.5,27.7,00.0,38.3,31.3,25.1,0000.0,0011.46,0006.63,0005.83
2022-07-18 08:35:00,,0827.7,4.99,0.00,29.5,27.9,00.0,38.3,31.4,25.1,0000.0,0011.24,0006.59,0005.81
2022-07-18 08:36:00,,0827.7,5.00,0.00,29.5,28.0,00.0,38.3,31.4,25.1,0000.0,0011.24,0006.57,0005.79
2022-07-18 08:37:00,,0827.7,5.01,0.00,29.5,28.1,00.0,38.3,31.4,25.0,0000.0,0011.18,0006.53,0005.78
2022-07-18 08:38:00,,0827.7,4.99,0.00,29.5,28.3,00.0,38.3,31.5,24.9,0000.0,0011.00,0006.52,0005.78
2022-07-18 08:39:00,,0827.7,5.01,0.00,29.6,28.4,00.0,38.3,31.5,24.9,0000.0,0011.86,0006.53,0005.78
2022-07-18 08:40:00,,0827.7,4.99,0.00,29.6,28.4,00.0,38.3,31.5,24.8,0000.0,0011.70,0006.46,0005.76
2022-07-18 08:41:00,,0827.7,5.01,0.00,29.6,28.5,00.0,38.3,31.6,24.6,0000.0,0011.55,0006.42,0005.76
2022-07-18 08:42:00,,0827.7,4.99,0.00,29.7,28.6,00.0,38.4,31.6,24.6,0000.0,0011.44,0006.40,0005.75
2022-07-18 08:43:00,,0827.7,5.02,0.00,29.7,28.7,00.0,38.4,31.7,24.6,0000.0,0011.29,0006.37,0005.73
2022-07-18 08:44:00,,0827.7,5.00,0.00,29.7,28.4,00.0,38.4,31.7,24.6,0000.0,0011.62,0006.38,0005.73
2022-07-18 08:45:00,,0827.7,5.01,0.00,29.7,27.7,00.0,38.3,31.6,24.6,0000.0,0011.79,0006.40,0005.73
2022-07-18 08:46:00,,0827.7,4.99,0.00,29.7,27.4,00.0,38.3,31.5,24.7,0000.0,0011.84,0006.41,0005.73
2022-07-18 08:47:00,,0827.7,5.00,0.00,29.6,27.4,00.0,38.3,31.4,24.9,0000.0,0011.85,0006.40,0005.74
2022-07-18 08:48:00,,0827.7,5.00,0.00,29.5,27.5,00.0,38.3,31.3,24.9,0000.0,0011.90,0006.43,0005.75
2022-07-18 08:49:00,,0827.7,5.00,0.00,29.5,27.7,00.0,38.3,31.3,25.0,0000.0,0011.71,0006.40,0005.75
2022-07-18 08:50:00,,0827.7,5.01,0.00,29.5,27.8,00.0,38.3,31.4,25.0,0000.0,0010.59,0006.36,0005.75
2022-07-18 08:51:00,,0827.8,5.01,0.00,29.5,27.9,00.0,38.3,31.4,25.0,0000.0,0010.41,0006.37,0005.74
2022-07-18 08:52:00,,0827.7,4.99,0.00,29.5,28.1,00.0,38.3,31.4,25.0,0000.0,0010.59,0006.43,0005.74
2022-07-18 08:53:00,,0827.7,5.00,0.00,29.6,28.2,00.0,38.3,31.5,24.9,0000.0,0010.70,0006.45,0005.74
2022-07-18 08:54:00,,0827.7,5.01,0.00,29.6,28.3,00.0,38.3,31.5,24.9,0000.0,0010.83,0006.49,0005.75
2022-07-18 08:55:00,,0827.7,4.99,0.00,29.6,28.4,00.0,38.3,31.5,24.9,0000.0,0010.77,0006.50,0005.74
2022-07-18 08:56:00,,0827.7,5.01,0.00,29.6,28.5,00.0,38.4,31.6,24.8,0000.0,0010.18,0006.49,0005.74
2022-07-18 08:57:00,,0827.7,4.99,0.00,29.7,28.6,00.0,38.4,31.6,24.7,0000.0,0010.21,0006.45,0005.73
2022-07-18 08:58:00,,0827.7,5.02,0.00,29.7,28.6,00.0,38.4,31.7,24.7,0000.0,0010.27,0006.44,0005.73
2022-07-18 08:59:00,,0827.7,5.01,0.00,29.7,28.7,00.0,38.4,31.7,24.6,0000.0,0010.27,0006.43,0005.73
